Back to catalog

STARLINK-34409

AliveCommunicationsVLEO
NORAD 64485·PAYLOAD·🇺🇸 United States

Launched Jun 23, 2025 from Cape Canaveral Space Force Station

Loading…

Next Passes (next 24 hours)

TLE

FreshSource: CelesTrak SupGP

Epoch: Sep 15, 2026, 02:58 UTC

1 64485C 25133P   26258.12409722  .00046075  00000+0  13602-2 0  2584
2 64485  53.1582 314.4984 0001252  93.0578 331.5935 15.34393342    15

Track STARLINK-34409 in real time with AllMySat

Download on the App Store